STARLINK-1309, 45414

Orbit data source: Space-Track

STARLINK-1309, 45414 is a payload satellite owned by SpaceX/Seattle (US) in LEO that was launched on Wed, 18 Mar 2020 UTC via an FALCON 9 launch vehicle from the Air Force Eastern Test Range (AFETR). Payload-class satellites include a variety of spacecraft equipped with specific instruments for various scientific and technological missions. These include communications satellites like Starlink; space stations such as the ISS; scientific satellites like the Hubble; Earth observation satellites from companies like Planet Labs, Umbra, and HawkEye 360; GPS; miniature CubeSats for education and research; and military/defense satellites.

Loading next visibility...
Identifier
45414, 2020-019BG
Orbit
LEO
Country
Flag of USUS
Related business
Manufacturer
SpaceX/Seattle
Mission
Partially operational Commercial Communications
Bus & Motor
STARLINK, Unknown motor
Mass
260 kg wet, ~248 kg dry
Launch date (UTC)
2020-03-18 (6 years ago)
Launch vehicle
FALCON 9
Launch site
Air Force Eastern Test Range (AFETR)
Object type
Payload
Rocket body
Debris
Shape & HBR
Box + 1 Pan, 10.1 m
Radar Cross Section
13.562 m², Large (>1 m²)

Expand to show TLE details & history
Last TLE update: 3 hours ago

TLE from 3 hours ago
0 STARLINK-1309
1 45414U 20019BG  26037.91671296 -.00136699  00000-0 -26382-2 0  9998
2 45414  53.0706 271.5901 0000868 108.2494 314.9467 15.47693371  5786
Epoch: 2026-02-06T22:00Z
TLE epoch observation values (Epoch: 2026-02-06T22:00:03.999Z)
Latitude
45.65938°
Longitude
-145.58096°
Altitude
427.876 km
Speed
7.661 km/s
True Right ascension
21h 25m 56s
True Declination
45° 28' 45"
Sunlit
Object was in daylight at epoch
Visualization orbit readout
Latitude
Unknown
Longitude
Unknown
Altitude
Unknown
Speed
Unknown
Apparent Right ascension
Unknown
Apparent Declination
Unknown
Sunlit
N/A
Visualization observer readout
Local Sidereal Time
02:43:14
Azimuth
Unknown
Elevation
Unknown
Doppler factor
Unknown
Orbital elements
Apogee altitude
424.339 km
Perigee altitude
423.158 km
Semi-major axis
6,801.885 km
Eccentricity
0.00009
Inclination
53.0706°
RAAN
271.5901°
Arg. of periapsis
108.2494°
True anomaly
314.93966°
Mean anomaly
314.9467°
Eccentric anomaly
314.94318°
Mean motion
3.869 °/min
Orbital period
93.05 mins
BSTAR
-0.0026382
Loading maneuver chart data...
Computing Atmospheric mass density...
Loading historical data...
Loading historical data...
Loading historical data...
Loading historical data...
Loading historical data...
Loading historical data...
Loading historical data...

Documentation

Showing up to 5 results
|